GW0378 Weather Reports


time (UTC)temp
F
wind
direction
speed
knots
gust
knots
rain 1hr
in
rain 24hr
in
rain mn
in
humidity
%
barometer
mb
20260902162023 62 236 1.7 2.6 0.00 0.00 0.00 76 1009.1
20260902161518 61 39 1.7 3.5 0.00 0.00 0.00 76 1009.0
20260902161013 59 241 0.0 1.7 0.00 0.00 0.00 79 1009.3
20260902160509 59 206 1.7 1.7 0.00 0.00 0.00 79 1009.0
20260902160010 59 4 0.0 3.5 0.00 0.00 0.00 80 1008.8
20260902155502 59 0 1.7 2.6 0.00 0.00 0.00 79 1009.1
20260902155001 59 306 0.0 2.6 0.00 0.00 0.00 80 1009.3
20260902154456 59 203 0.0 1.7 0.00 0.00 0.00 80 1008.9
20260902153952 58 0 1.7 2.6 0.00 0.00 0.00 82 1009.0
20260902153450 58 315 1.7 1.7 0.00 0.00 0.00 83 1009.1
20260902152945 57 257 1.7 2.6 0.00 0.00 0.00 84 1009.1
20260902152442 57 270 1.7 3.5 0.00 0.00 0.00 85 1009.0
20260902151937 57 265 1.7 3.5 0.00 0.00 0.00 85 1008.9
20260902151433 57 180 0.0 4.3 0.00 0.00 0.00 86 1008.9
20260902150926 56 260 3.5 3.5 0.00 0.00 0.00 87 1009.1
20260902150423 56 270 2.6 3.5 0.00 0.00 0.00 87 1009.0
20260902145922 56 195 0.9 3.5 0.00 0.00 0.00 87 1008.9
20260902145418 56 212 0.9 2.6 0.00 0.00 0.00 88 1008.8
20260902144913 55 270 0.9 2.6 0.00 0.00 0.00 88 1009.0
20260902144409 56 340 0.9 1.7 0.00 0.00 0.00 87 1008.8
20260902143903 56 45 0.0 1.7 0.00 0.00 0.00 88 1008.9
20260902143358 55 35 0.0 1.7 0.00 0.00 0.00 88 1008.9
20260902142853 55 286 0.0 0.9 0.00 0.00 0.00 89 1009.0
20260902142349 55 315 0.0 2.6 0.00 0.00 0.00 89 1009.0
20260902141844 55 168 0.0 1.7 0.00 0.00 0.00 90 1009.1
20260902141340 55 145 0.9 2.6 0.00 0.00 0.00 90 1009.0
20260902140839 54 187 0.9 0.9 0.00 0.00 0.00 90 1009.4
20260902140334 54 270 0.0 0.0 0.00 0.00 0.00 90 1009.5
20260902135833 54 99 0.0 2.6 0.00 0.00 0.00 90 1009.5
20260902135330 54 156 0.0 1.7 0.00 0.00 0.00 90 1009.3
20260902134828 54 172 0.0 0.0 0.00 0.00 0.00 90 1009.1
20260902134324 53 257 0.9 0.9 0.00 0.00 0.00 91 1009.4
20260902133820 53 98 0.9 0.9 0.00 0.00 0.00 91 1009.5
20260902133319 53 35 0.0 2.6 0.00 0.00 0.00 91 1009.6
20260902132815 53 209 1.7 1.7 0.00 0.00 0.00 91 1009.5
20260902132310 53 90 1.7 2.6 0.00 0.00 0.00 90 1009.5
20260902131805 53 180 0.0 0.0 0.00 0.00 0.00 90 1009.6
20260902131301 53 74 0.0 1.7 0.00 0.00 0.00 90 1009.4
20260902130755 53 78 0.9 2.6 0.00 0.00 0.00 90 1009.4
20260902130251 53 18 0.9 1.7 0.00 0.00 0.00 90 1009.6
20260902125747 53 115 1.7 1.7 0.00 0.00 0.00 89 1009.5
20260902125242 54 90 1.7 1.7 0.00 0.00 0.00 89 1009.3
20260902124739 54 60 0.9 1.7 0.00 0.00 0.00 88 1009.3
20260902124234 54 195 1.7 2.6 0.00 0.00 0.00 88 1009.5
20260902123729 55 90 0.0 2.6 0.00 0.00 0.00 88 1009.3
20260902123225 55 157 0.0 1.7 0.00 0.00 0.00 86 1009.3
20260902122724 56 331 0.0 3.5 0.00 0.00 0.00 85 1009.5
20260902122220 56 281 0.0 4.3 0.00 0.00 0.00 84 1009.3
20260902121720 56 7 1.7 6.1 0.00 0.00 0.00 82 1009.3
20260902121215 56 125 6.1 8.7 0.00 0.00 0.00 82 1009.5
20260902120710 56 98 5.2 7.0 0.00 0.00 0.00 83 1009.5
20260902120206 55 120 4.3 4.3 0.00 0.00 0.00 87 1009.4
20260902115701 55 112 1.7 2.6 0.00 0.00 0.00 87 1009.4
20260902115157 55 166 0.0 2.6 0.00 0.00 0.00 86 1009.7
20260902114653 55 317 4.3 7.0 0.00 0.00 0.00 86 1009.8
20260902114147 57 226 3.5 7.8 0.00 0.00 0.00 83 1009.7
20260902113642 57 82 0.0 2.6 0.00 0.00 0.00 80 1009.6
20260902113137 56 117 4.3 7.0 0.00 0.00 0.00 82 1009.4
20260902112633 55 129 4.3 8.7 0.00 0.00 0.00 83 1009.4
20260902112130 56 105 7.0 9.6 0.00 0.00 0.00 83 1009.4
20260902111625 55 106 6.1 7.8 0.00 0.00 0.00 83 1010.1
20260902111121 55 98 6.1 7.0 0.00 0.00 0.00 85 1010.3
20260902110617 55 94 1.7 4.3 0.00 0.00 0.00 85 1010.5
20260902110113 55 97 4.3 5.2 0.00 0.00 0.00 86 1010.8
20260902105612 55 177 1.7 2.6 0.00 0.00 0.00 85 1011.0
20260902105107 55 70 2.6 3.5 0.00 0.00 0.00 84 1011.1
20260902104602 55 244 2.6 4.3 0.00 0.00 0.00 85 1011.5
20260902104057 55 90 0.0 2.6 0.00 0.00 0.00 84 1011.5
20260902103552 55 103 2.6 3.5 0.00 0.00 0.00 86 1011.1
20260902103047 55 90 0.9 4.3 0.00 0.00 0.00 84 1011.4
20260902102543 56 151 0.0 1.7 0.00 0.00 0.00 83 1011.4
20260902102041 56 47 2.6 2.6 0.00 0.00 0.00 82 1011.3
20260902101536 57 5 1.7 6.1 0.00 0.00 0.00 81 1011.1
20260902101034 56 85 1.7 2.6 0.00 0.00 0.00 84 1011.3
20260902100535 56 132 1.7 1.7 0.00 0.00 0.00 84 1011.4
20260902100035 55 60 2.6 2.6 0.00 0.00 0.00 85 1011.5
20260902095534 56 140 0.0 1.7 0.00 0.00 0.00 85 1011.5
20260902095033 56 98 1.7 2.6 0.00 0.00 0.00 84 1011.3
20260902094529 56 109 2.6 3.5 0.00 0.00 0.00 85 1011.5
20260902094025 56 150 1.7 3.5 0.00 0.00 0.00 88 1011.4
20260902093525 56 135 1.7 2.6 0.00 0.00 0.00 87 1011.5
20260902093020 56 145 0.0 1.7 0.00 0.00 0.00 87 1011.5
20260902092514 57 106 0.0 0.0 0.00 0.00 0.00 86 1011.6
20260902092009 57 96 1.7 1.7 0.00 0.00 0.00 85 1011.3
20260902091504 57 29 0.0 0.9 0.00 0.00 0.00 84 1011.4
20260902091000 57 217 2.6 2.6 0.00 0.00 0.00 82 1011.1
20260902090455 57 111 0.9 2.6 0.00 0.00 0.00 80 1011.0
20260902085954 58 110 3.5 4.3 0.00 0.00 0.00 80 1011.0
20260902085449 57 106 2.6 3.5 0.00 0.00 0.00 83 1011.0
20260902084944 58 69 0.9 2.6 0.00 0.00 0.00 84 1011.1
20260902084441 57 106 1.7 2.6 0.00 0.00 0.00 84 1011.3
20260902083937 58 112 1.7 2.6 0.00 0.00 0.00 83 1011.4
20260902083436 58 270 0.0 2.6 0.00 0.00 0.00 82 1011.5
20260902082931 58 45 1.7 2.6 0.00 0.00 0.00 82 1011.5
20260902082427 58 172 0.0 0.9 0.00 0.00 0.00 81 1011.4
20260902081923 59 5 0.9 1.7 0.00 0.00 0.00 81 1011.4
20260902081420 58 262 0.0 0.9 0.00 0.00 0.00 81 1011.4
20260902080914 58 180 0.9 1.7 0.00 0.00 0.00 80 1011.6
20260902080410 59 111 0.9 1.7 0.00 0.00 0.00 79 1011.5
20260902075909 59 8 0.0 0.9 0.00 0.00 0.00 78 1011.5
20260902075406 59 26 0.9 2.6 0.00 0.00 0.00 77 1011.4
20260902074901 60 75 0.9 1.7 0.00 0.00 0.00 75 1011.7
20260902074357 60 183 1.7 2.6 0.00 0.00 0.00 75 1011.7
20260902073851 60 90 0.9 1.7 0.00 0.00 0.00 75 1011.6
20260902073348 60 246 1.7 1.7 0.00 0.00 0.00 75 1011.8
20260902072844 61 0 2.6 4.3 0.00 0.00 0.00 74 1012.0
20260902072339 61 277 0.0 1.7 0.00 0.00 0.00 71 1011.9
20260902071835 61 131 2.6 2.6 0.00 0.00 0.00 71 1011.9
20260902071329 61 103 0.9 4.3 0.00 0.00 0.00 71 1011.8
20260902070826 60 90 0.9 1.7 0.00 0.00 0.00 73 1012.4
20260902070326 59 202 1.7 2.6 0.00 0.00 0.00 76 1012.3
20260902065825 60 166 0.0 2.6 0.00 0.00 0.00 77 1012.4
20260902065320 59 117 2.6 2.6 0.00 0.00 0.00 77 1012.1
20260902064815 60 180 0.0 2.6 0.00 0.00 0.00 78 1011.9
20260902064312 59 99 0.0 2.6 0.00 0.00 0.00 78 1012.5
20260902063807 59 85 1.7 6.1 0.00 0.00 0.00 78 1012.3
20260902063307 59 20 0.0 3.5 0.00 0.00 0.00 78 1012.7
20260902062801 59 107 3.5 6.1 0.00 0.00 0.00 78 1012.9
20260902062256 60 90 0.0 1.7 0.00 0.00 0.00 77 1012.7
20260902061755 60 20 2.6 2.6 0.00 0.00 0.00 77 1012.8
20260902061250 60 38 1.7 2.6 0.00 0.00 0.00 76 1013.0
20260902060748 60 90 0.9 2.6 0.00 0.00 0.00 75 1013.1
20260902060242 61 312 1.7 2.6 0.00 0.00 0.00 74 1013.1
20260902055738 60 275 1.7 2.6 0.00 0.02 0.02 74 1012.7
20260902055234 60 218 2.6 3.5 0.00 0.02 0.02 75 1012.8
20260902054729 60 168 0.9 3.5 0.00 0.02 0.02 76 1012.8
20260902054225 60 263 0.0 2.6 0.00 0.02 0.02 78 1012.5
20260902053720 60 237 0.0 3.5 0.00 0.02 0.02 78 1012.5
20260902053220 60 263 0.0 5.2 0.00 0.02 0.02 79 1012.6
20260902052719 60 235 2.6 3.5 0.00 0.02 0.02 78 1012.4
20260902052215 61 166 0.9 2.6 0.00 0.02 0.02 74 1012.1
20260902051714 61 21 1.7 2.6 0.00 0.02 0.02 74 1012.0
20260902051209 60 151 0.0 0.9 0.00 0.02 0.02 74 1012.0
20260902050703 61 98 0.0 1.7 0.00 0.02 0.02 75 1011.9
20260902050159 61 112 1.7 4.3 0.00 0.02 0.02 74 1012.0
20260902045653 61 104 2.6 2.6 0.00 0.02 0.02 74 1012.1
20260902045150 61 94 4.3 4.3 0.00 0.02 0.02 74 1012.5
20260902044650 62 79 1.7 2.6 0.00 0.02 0.02 72 1012.9
20260902044146 62 90 1.7 6.1 0.00 0.02 0.02 71 1013.4
20260902043641 62 263 0.9 4.3 0.00 0.02 0.02 71 1013.2
20260902043136 62 253 1.7 5.2 0.00 0.02 0.02 70 1013.8
20260902042635 63 252 5.2 6.1 0.00 0.02 0.02 69 1013.9
20260902042131 62 270 0.9 1.7 0.00 0.02 0.02 68 1013.7
20260902041630 63 114 0.0 0.9 0.00 0.02 0.02 69 1013.6
20260902041125 62 108 2.6 4.3 0.00 0.02 0.02 69 1013.8
20260902040625 63 186 0.9 2.6 0.00 0.02 0.02 68 1013.9
20260902040120 63 50 3.5 4.3 0.00 0.02 0.02 67 1013.6
20260902035618 63 103 3.5 7.8 0.00 0.02 0.02 67 1013.9
20260902035114 63 107 6.1 11.3 0.00 0.02 0.02 67 1013.9
20260902034613 63 103 0.0 10.4 0.00 0.02 0.02 67 1013.8
20260902034113 62 161 2.6 4.3 0.00 0.02 0.02 70 1013.6
20260902033612 62 112 6.1 10.4 0.00 0.02 0.02 71 1013.8
20260902033108 63 138 2.6 2.6 0.00 0.02 0.02 70 1013.7
20260902032606 63 53 0.0 4.3 0.00 0.02 0.02 70 1013.8
20260902032101 63 246 0.0 4.3 0.00 0.02 0.02 70 1013.9
20260902031601 63 71 4.3 7.8 0.00 0.02 0.02 70 1013.8
20260902031057 62 34 3.5 6.1 0.02 0.02 0.02 72 1013.6
20260902030552 62 135 0.0 5.2 0.02 0.02 0.02 74 1013.7
20260902030052 62 86 2.6 4.3 0.02 0.01 0.01 74 1013.5
20260902025552 62 99 0.0 1.7 0.05 0.01 0.01 75 1013.8
20260902025047 62 120 0.0 1.7 0.05 0.01 0.01 74 1013.8
20260902024543 63 172 0.0 5.2 0.02 0.00 0.00 71 1013.9
20260902024042 64 217 3.5 4.3 0.00 0.00 0.00 67 1013.4
20260902023538 65 307 1.7 9.6 0.00 0.00 0.00 65 1013.6
20260902023033 66 259 4.3 6.1 0.00 0.00 0.00 63 1013.5
20260902022527 66 169 1.7 5.2 0.00 0.00 0.00 61 1013.4
20260902022023 65 220 2.6 2.6 0.00 0.00 0.00 62 1013.5
20260902021519 65 173 0.0 3.5 0.00 0.00 0.00 63 1013.2
20260902021014 65 180 0.0 2.6 0.00 0.00 0.00 63 1013.2
20260902020509 65 195 0.9 2.6 0.00 0.00 0.00 62 1013.4
20260902020005 65 270 0.0 3.5 0.00 0.00 0.00 62 1013.4
20260902015501 66 121 0.0 5.2 0.00 0.00 0.00 61 1013.4
20260902014956 67 243 3.5 15.6 0.00 0.00 0.00 56 1013.5
20260902014452 68 253 1.7 5.2 0.00 0.00 0.00 53 1013.5
20260902013952 68 154 3.5 13.0 0.00 0.00 0.00 53 1013.4
20260902013447 68 206 5.2 5.2 0.00 0.00 0.00 53 1012.7
20260902012942 68 121 2.6 5.2 0.00 0.00 0.00 54 1012.6
20260902012438 68 79 1.7 5.2 0.00 0.00 0.00 55 1012.0
20260902011933 68 238 3.5 13.0 0.00 0.00 0.00 55 1011.9
20260902011428 69 214 3.5 10.4 0.00 0.00 0.00 52 1011.5
20260902010928 69 205 2.6 18.2 0.00 0.00 0.00 50 1011.3
20260902010423 70 223 4.3 20.0 0.00 0.00 0.00 48 1011.3
20260902005922 71 205 5.2 7.8 0.00 0.00 0.00 48 1011.1
20260902005421 72 234 9.6 10.4 0.00 0.00 0.00 46 1011.1
20260902004918 73 217 5.2 8.7 0.00 0.00 0.00 45 1010.8
20260902004417 74 211 10.4 13.9 0.00 0.00 0.00 42 1010.8
20260902003912 75 212 4.3 15.6 0.00 0.00 0.00 39 1010.8
20260902003407 75 205 8.7 17.4 0.00 0.00 0.00 38 1010.5
20260902002903 77 229 2.6 19.1 0.00 0.00 0.00 36 1010.5
20260902002403 77 236 12.2 20.9 0.00 0.00 0.00 35 1009.7
20260902001857 78 247 13.0 14.8 0.00 0.00 0.00 34 1009.9
20260902001352 80 273 8.7 16.5 0.00 0.00 0.00 31 1009.6
20260902000847 81 210 5.2 12.2 0.00 0.00 0.00 29 1009.1
20260902000344 81 236 8.7 17.4 0.00 0.00 0.00 29 1009.0
20260901235837 82 256 7.8 13.0 0.00 0.00 0.00 29 1008.6
20260901235337 82 292 4.3 13.0 0.00 0.00 0.00 28 1008.6
20260901234832 83 248 2.6 4.3 0.00 0.00 0.00 28 1008.5
20260901234326 83 231 2.6 7.8 0.00 0.00 0.00 28 1008.3
20260901233821 83 300 0.9 6.1 0.00 0.00 0.00 29 1008.5
20260901233317 83 266 4.3 6.1 0.00 0.00 0.00 28 1007.9
20260901232813 83 308 0.0 8.7 0.00 0.00 0.00 28 1007.9
20260901232307 84 270 2.6 3.5 0.00 0.00 0.00 28 1007.9
20260901231804 84 274 2.6 2.6 0.00 0.00 0.00 27 1007.8
20260901231300 84 283 1.7 2.6 0.00 0.00 0.00 26 1007.7
20260901230756 84 276 0.0 1.7 0.00 0.00 0.00 27 1007.8
20260901230255 84 262 1.7 2.6 0.00 0.00 0.00 27 1007.6
20260901225750 84 283 1.7 2.6 0.00 0.00 0.00 27 1007.8
20260901225244 84 281 1.7 2.6 0.00 0.00 0.00 28 1007.7
20260901224741 84 259 2.6 2.6 0.00 0.00 0.00 28 1007.6
20260901224236 84 337 0.9 1.7 0.00 0.00 0.00 27 1007.7
20260901223732 84 292 1.7 3.5 0.00 0.00 0.00 27 1007.7
20260901223226 85 304 1.7 3.5 0.00 0.00 0.00 28 1007.9
20260901222723 84 258 1.7 4.3 0.00 0.00 0.00 28 1007.8
20260901222219 85 277 2.6 2.6 0.00 0.00 0.00 29 1007.8
20260901221715 85 280 3.5 5.2 0.00 0.00 0.00 27 1007.6
20260901221211 86 308 1.7 3.5 0.00 0.00 0.00 25 1007.9
20260901220709 85 291 0.0 4.3 0.00 0.00 0.00 25 1008.0
20260901220209 85 255 4.3 6.1 0.00 0.00 0.00 27 1008.0
20260901215708 86 180 0.9 4.3 0.00 0.00 0.00 27 1008.0
20260901215202 85 275 3.5 4.3 0.00 0.00 0.00 29 1008.3
20260901214700 86 325 2.6 2.6 0.00 0.00 0.00 27 1008.1
20260901214154 86 345 1.7 3.5 0.00 0.00 0.00 28 1008.4
20260901213649 85 274 0.0 3.5 0.00 0.00 0.00 26 1008.3
20260901213144 85 270 2.6 6.1 0.00 0.00 0.00 28 1008.6
20260901212643 85 273 2.6 7.0 0.00 0.00 0.00 28 1008.4
20260901212139 85 342 1.7 3.5 0.00 0.00 0.00 26 1008.8
20260901211634 85 298 2.6 3.5 0.00 0.00 0.00 30 1009.0
20260901211131 84 23 0.9 3.5 0.00 0.00 0.00 28 1009.0
20260901210626 84 24 1.7 2.6 0.00 0.00 0.00 29 1009.1
20260901210122 84 48 1.7 3.5 0.00 0.00 0.00 28 1009.3
20260901205618 83 350 2.6 2.6 0.00 0.00 0.00 30 1009.4
20260901205117 82 270 0.9 4.3 0.00 0.00 0.00 30 1009.6
20260901204613 82 247 2.6 4.3 0.00 0.00 0.00 29 1009.6
20260901204108 82 261 3.5 4.3 0.00 0.00 0.00 30 1009.7
20260901203607 81 265 3.5 3.5 0.00 0.00 0.00 32 1009.5
20260901203102 80 281 2.6 4.3 0.00 0.00 0.00 32 1009.7
20260901202602 80 309 1.7 3.5 0.00 0.00 0.00 32 1009.9
20260901202059 80 276 1.7 3.5 0.00 0.00 0.00 31 1010.0
20260901201554 79 329 2.6 3.5 0.00 0.00 0.00 36 1010.1
20260901201053 80 270 0.0 1.7 0.00 0.00 0.00 33 1010.0
20260901200553 78 203 0.0 2.6 0.00 0.00 0.00 33 1010.3
20260901200048 77 297 1.7 2.6 0.00 0.00 0.00 34 1010.4
20260901195546 76 256 2.6 2.6 0.00 0.00 0.00 36 1010.4
20260901195046 76 23 0.9 2.6 0.00 0.00 0.00 34 1010.5
20260901194541 76 312 1.7 3.5 0.00 0.00 0.00 35 1010.5
20260901194037 76 266 2.6 4.3 0.00 0.00 0.00 36 1010.6
20260901193536 75 270 1.7 3.5 0.00 0.00 0.00 36 1010.8
20260901193031 75 252 2.6 4.3 0.00 0.00 0.00 37 1010.8
20260901192526 74 206 1.7 3.5 0.00 0.00 0.00 37 1011.1
20260901192022 74 332 1.7 3.5 0.00 0.00 0.00 36 1011.3
20260901191518 74 251 4.3 4.3 0.00 0.00 0.00 38 1011.1
20260901191014 73 243 1.7 3.5 0.00 0.00 0.00 39 1011.5
20260901190509 72 290 1.7 3.5 0.00 0.00 0.00 40 1011.6
20260901190008 71 282 3.5 3.5 0.00 0.00 0.00 39 1011.6
20260901185501 72 253 2.6 4.3 0.00 0.00 0.00 42 1011.9
20260901185001 71 299 2.6 3.5 0.00 0.00 0.00 41 1012.0
20260901184456 71 303 1.7 4.3 0.00 0.00 0.00 40 1012.1
20260901183951 71 103 0.9 1.7 0.00 0.00 0.00 40 1012.1
20260901183445 70 273 2.6 4.3 0.00 0.00 0.00 43 1012.3
20260901182941 70 270 2.6 2.6 0.00 0.00 0.00 43 1012.1
20260901182437 69 324 1.7 2.6 0.00 0.00 0.00 43 1012.5
20260901181931 69 275 2.6 3.5 0.00 0.00 0.00 42 1012.6
20260901181426 68 305 2.6 2.6 0.00 0.00 0.00 45 1012.6
20260901180925 67 273 2.6 4.3 0.00 0.00 0.00 43 1012.6
20260901180424 67 346 2.6 2.6 0.00 0.00 0.00 44 1012.9
20260901175922 67 309 2.6 2.6 0.00 0.00 0.00 44 1012.9
20260901175418 66 276 1.7 3.5 0.00 0.00 0.00 44 1013.2
20260901174913 66 266 2.6 3.5 0.00 0.00 0.00 44 1013.2
20260901174409 66 194 0.0 2.6 0.00 0.00 0.00 43 1013.2
20260901173904 65 276 2.6 3.5 0.00 0.00 0.00 45 1013.4
20260901173359 64 273 3.5 4.3 0.00 0.00 0.00 46 1013.2
20260901172855 65 238 2.6 3.5 0.00 0.00 0.00 45 1013.4
20260901172355 65 197 1.7 1.7 0.00 0.00 0.00 43 1013.6
20260901171853 64 341 1.7 2.6 0.00 0.00 0.00 46 1013.8
20260901171352 62 337 2.6 5.2 0.00 0.00 0.00 48 1013.8
20260901170851 62 206 1.7 2.6 0.00 0.00 0.00 48 1013.8
20260901170346 61 285 2.6 4.3 0.00 0.00 0.00 49 1013.9
20260901165846 61 323 4.3 4.3 0.00 0.00 0.00 50 1013.8
20260901165340 62 276 3.5 4.3 0.00 0.00 0.00 50 1014.0
20260901164837 64 307 3.5 5.2 0.00 0.00 0.00 48 1014.0
20260901164331 61 266 3.5 4.3 0.00 0.00 0.00 49 1014.0
20260901163826 61 21 1.7 3.5 0.00 0.00 0.00 49 1013.9
20260901163321 60 312 1.7 2.6 0.00 0.00 0.00 56 1014.0
20260901162816 60 285 0.0 2.6 0.00 0.00 0.00 52 1014.1
20260901162315 59 306 0.0 2.6 0.00 0.00 0.00 55 1014.2